This demonstration page uses our WeatherBlox Daily Observations layout. Learn more.

Left ArrowRight Arrow

38.88101, -77.10428

Hourly Observations for May 26, 2021

Temp ( °F °C ) Dew Point ( °F °C ) Humidity (%) Winds ( mph kmh ) Pressure ( in mb ) Visibility ( mi km ) Precip ( " mm )
12:52 am 00:52 Mostly Cloudy 69 20.6 64 17.8 84 84 S 5 7 30.14 1021 10 16 N/A
1:52 am 01:52 Mostly Cloudy 70 21.1 65 18.3 84 84 S 10 17 30.12 1020 10 16 N/A
2:52 am 02:52 Cloudy 70 21.1 65 18.3 84 84 S 10 17 30.11 1020 10 16 N/A
3:52 am 03:52 Cloudy 70 21.1 66 18.9 87 87 S 9 15 30.10 1019 10 16 N/A
4:52 am 04:52 Cloudy 71 21.7 66 18.9 84 84 S 9 15 30.10 1019 10 16 N/A
5:52 am 05:52 Cloudy 71 21.7 67 19.4 87 87 S 8 13 30.09 1019 10 16 0.00 0.00
6:52 am 06:52 Cloudy 71 21.7 67 19.4 87 87 S 7 11 30.09 1019 9 14 N/A
7:52 am 07:52 Mostly Cloudy 73 22.8 67 19.4 81 81 SSW 5 7 30.09 1019 10 16 N/A
8:52 am 08:52 Mostly Cloudy 75 23.9 68 20 79 79 SSW 7 11 30.10 1019 10 16 N/A
9:52 am 09:52 Mostly Cloudy 77 25 69 20.6 77 77 S 7 11 30.08 1019 10 16 N/A
10:52 am 10:52 Mostly Cloudy 78 25.6 70 21.1 76 76 SSE 9 15 30.06 1018 10 16 N/A
11:52 am 11:52 Mostly Sunny 83 28.3 71 21.7 67 67 S 8 13 30.05 1018 10 16 N/A
12:52 pm 12:52 Sunny 86 30 71 21.7 61 61 S 12 19 30.03 1017 10 16 N/A
1:52 pm 13:52 Mostly Sunny 88 31.1 69 20.6 54 54 S 13 20 30.00 1016 10 16 N/A
2:52 pm 14:52 Mostly Sunny 89 31.7 67 19.4 48 48 SSE 12 19 29.96 1014 10 16 N/A
3:52 pm 15:52 Partly Cloudy 90 32.2 68 20 48 48 S 13 20 29.91 1013 10 16 N/A
4:45 pm 16:45 Sunny with Nearby Thunderstorms 88 31.1 67 19.4 50 50 S 10 17 29.90 1012 10 16 N/A
4:52 pm 16:52 Mostly Cloudy with Nearby Thunderstorms 88 31.1 67 19.4 50 50 S 9 15 29.90 1013 10 16 N/A
4:55 pm 16:55 Mostly Cloudy with Thunderstorms 88 31.1 67 19.4 50 50 S 8 13 29.91 1013 10 16 N/A
5:08 pm 17:08 Mostly Cloudy with Strong Thunderstorms 83 28.3 67 19.4 59 59 undefined N/A 29.92 1013 3 4 0.02 0.51
5:15 pm 17:15 Windy with Storms Likely 80 26.7 69 20.6 69 69 W 36 57 29.94 1014 1 2 0.06 1.52
5:18 pm 17:18 Cloudy with Strong Thunderstorms 76 24.4 69 20.6 79 79 W 36 57 29.96 1014 1 1 0.10 2.54
5:22 pm 17:22 Cloudy with Strong Thunderstorms 73 22.8 66 18.9 79 79 NE 13 20 29.92 1013 0 0 0.22 5.59
5:30 pm 17:30 Mostly Cloudy with Thunderstorms 79 26.1 65 18.3 62 62 SE 9 15 29.90 1012 1 1 0.53 13.46
5:33 pm 17:33 Mostly Cloudy with Thunderstorms 81 27.2 66 18.9 61 61 S 8 13 29.91 1013 2 3 0.53 13.46
5:35 pm 17:35 Mostly Cloudy with Thunderstorms 81 27.2 68 20 65 65 SSW 9 15 29.92 1013 7 11 0.53 13.46
5:52 pm 17:52 Mostly Cloudy with Thunderstorms 77 25 68 20 74 74 SSW 14 22 29.94 1014 10 16 0.53 13.46
5:54 pm 17:54 Mostly Cloudy with Thunderstorms 77 25 67 19.4 71 71 SSW 14 22 29.94 1014 10 16 N/A
6:09 pm 18:09 Mostly Cloudy with Nearby Thunderstorms 78 25.6 69 20.6 74 74 SSE 7 11 29.92 1013 10 16 0.00 0.00
6:30 pm 18:30 Mostly Cloudy 78 25.6 69 20.6 74 74 SSE 7 11 29.91 1013 10 16 0.00 0.00
6:52 pm 18:52 Mostly Cloudy 75 23.9 70 21.1 84 84 N N/A 29.90 1013 10 16 0.00 0.00
7:15 pm 19:15 Mostly Cloudy with Nearby Thunderstorms 75 23.9 70 21.1 84 84 S 5 7 29.91 1013 10 16 N/A
7:30 pm 19:30 Mostly Cloudy 74 23.3 69 20.6 85 85 S 8 13 29.91 1013 10 16 N/A
7:52 pm 19:52 Mostly Cloudy 74 23.3 70 21.1 88 88 SSE 3 6 29.90 1013 10 16 N/A
8:19 pm 20:19 Mostly Cloudy with Thunderstorms 74 23.3 69 20.6 85 85 N N/A 29.91 1013 10 16 N/A
8:22 pm 20:22 Mostly Cloudy with Thunderstorms 74 23.3 69 20.6 85 85 W 5 7 29.93 1013 10 16 N/A
8:40 pm 20:40 Mostly Cloudy with Thunderstorms 74 23.3 61 16.1 64 64 NW 18 30 29.95 1014 10 16 N/A
8:52 pm 20:52 Cloudy with Thunderstorms 74 23.3 63 17.2 69 69 NW 16 26 29.97 1015 5 8 0.00 0.00
9:13 pm 21:13 Cloudy with Thunderstorms 71 21.7 64 17.8 79 79 WSW 15 24 29.96 1015 3 4 0.16 4.06
9:23 pm 21:23 Cloudy with Strong Thunderstorms 70 21.1 66 18.9 87 87 SSW 28 44 29.97 1015 2 3 0.29 7.37
9:32 pm 21:32 Cloudy with Thunderstorms 70 21.1 66 18.9 87 87 SSW 17 28 29.97 1015 4 6 0.35 8.89
9:43 pm 21:43 Mostly Cloudy with Thunderstorms 71 21.7 67 19.4 87 87 SSW 12 19 29.98 1015 10 16 0.36 9.14
9:52 pm 21:52 Mostly Cloudy 71 21.7 66 18.9 84 84 WSW 9 15 29.99 1016 10 16 0.36 9.14
10:02 pm 22:02 Mostly Cloudy with Nearby Thunderstorms 71 21.7 65 18.3 81 81 N N/A 29.98 1015 10 16 0.00 0.00
10:23 pm 22:23 Mostly Cloudy with Light Rain 71 21.7 65 18.3 81 81 N N/A 29.96 1015 8 13 0.00 0.00
10:26 pm 22:26 Cloudy with Nearby Thunderstorms 71 21.7 65 18.3 81 81 SSW 6 9 29.97 1015 8 13 0.01 0.25
10:41 pm 22:41 Cloudy with Light Rain 71 21.7 66 18.9 84 84 S 6 9 29.96 1015 10 16 0.01 0.25
10:52 pm 22:52 Mostly Cloudy 71 21.7 65 18.3 81 81 SW 6 9 29.96 1015 10 16 0.01 0.25
11:52 pm 23:52 Mostly Cloudy 72 22.2 66 18.9 82 82 SW 3 6 29.97 1015 10 16 N/A

Powered by AerisWeather